C/2020 Y2 ( ATLAS )

Japanese version
Home page
Updated on May 29, 2022

---------------------------------------------------------------------

* Profile

Discovery Date December 28, 2020
Magnitude 18.3 mag
Discoverer Asteroid Terrestrial-Impact Last Alert System (ATLAS) search program

* Pictures

* Orbital Elements

Epoch 2022 Jan. 21.0 TT = JDT 2459600.5
T 2022 June 17.67381 TT                                 Rudenko
q   3.1325043            (2000.0)            P               Q
z  +0.0008640      Peri.  266.09940     -0.14810818     +0.88682465
 +/-0.0000011      Node    26.51140     +0.52175785     +0.44606810
e   0.9972935      Incl.  101.29641     -0.84013851     +0.12068671
From 541 observations 2020 Mar. 25-2022 Jan. 18, mean residual 0".4.

* Finding Charts

* Magnitudes Graph

        m1 = 7.0 + 5 log d + 10.0 log r(t + 100)

---------------------------------------------------------------------

The orbital elements are published on M.P.E.C. 2022-C56.
The charts are made with StellaNavigator Ver.10 (AstroArts).
The magnitudes graphs are made with Comet for Windows.

---------------------------------------------------------------------

Copyright(C) Seiichi Yoshida (comet@aerith.net). All rights reserved.